Zurück zum Katalog

A-SEANSAT-PG1

AktivAmateurfunkSSO
NORAD 57197·PAYLOAD·🇲🇾 Malaysia

Gestartet Jun 27, 2023 von Vostochny Cosmodrome

Loading…

Nächste Überflüge (nächste 24 Stunden)

TLE

AktuellSource: Space-Track

Epoche: Sep 14, 2026, 21:40 UTC

1 57197U 23091AH  26257.90333566  .00019971  00000-0  50470-3 0  9997
2 57197  97.4994 329.5464 0007921 114.7951 245.4119 15.39805962178508

Verfolge A-SEANSAT-PG1 in Echtzeit mit AllMySat

Download on the App Store